contact:dominique.lefevre@mio.osupytheas.fr, maurice.libes@osupytheas.fr, didier.mallarino@osupytheas.fr
Project:EMSO http://www.emso-fr.org/EMSO-France
Depth: 2436.0 m
Title:EMSO Ligure Ouest : Data MII capteur MICROCAT
DateTime_Computer,Latitude,Longitude,Temperature,Conductivity,Pressure,DateTime_Instrument
DateTime_Computer,Latitude,Longitude,degC,S m-1,dbar,DateTime_Instrument
2021-06-19T00:02:51Z,42.805,6.029,13.2991,4.60002,2470.53,2021-6-19T02:04:05Z
2021-06-19T00:05:54Z,42.805,6.029,13.2996,4.60002,2470.553,2021-6-19T02:07:08Z
2021-06-19T00:08:57Z,42.805,6.029,13.2994,4.60005,2470.591,2021-6-19T02:10:11Z
2021-06-19T00:12:00Z,42.805,6.029,13.2993,4.60003,2470.544,2021-6-19T02:13:14Z
2021-06-19T00:15:03Z,42.805,6.029,13.2994,4.60002,2470.53,2021-6-19T02:16:17Z
2021-06-19T00:18:06Z,42.805,6.029,13.2993,4.60001,2470.553,2021-6-19T02:19:20Z
2021-06-19T00:21:09Z,42.805,6.029,13.2995,4.60003,2470.553,2021-6-19T02:22:23Z
2021-06-19T00:24:13Z,42.805,6.029,13.2996,4.60003,2470.553,2021-6-19T02:25:26Z
2021-06-19T00:27:16Z,42.805,6.029,13.2992,4.60000,2470.507,2021-6-19T02:28:30Z
2021-06-19T00:30:19Z,42.805,6.029,13.2996,4.60001,2470.53,2021-6-19T02:31:33Z
2021-06-19T00:33:22Z,42.805,6.029,13.2994,4.60003,2470.553,2021-6-19T02:34:36Z
2021-06-19T00:36:25Z,42.805,6.029,13.2993,4.60001,2470.553,2021-6-19T02:37:39Z
2021-06-19T00:39:28Z,42.805,6.029,13.2996,4.60002,2470.567,2021-6-19T02:40:42Z
2021-06-19T00:42:31Z,42.805,6.029,13.2993,4.60003,2470.553,2021-6-19T02:43:45Z
2021-06-19T00:45:34Z,42.805,6.029,13.2997,4.60001,2470.577,2021-6-19T02:46:48Z
2021-06-19T00:48:38Z,42.805,6.029,13.2993,4.60002,2470.53,2021-6-19T02:49:51Z
2021-06-19T00:51:41Z,42.805,6.029,13.2992,4.60001,2470.591,2021-6-19T02:52:55Z
2021-06-19T00:54:44Z,42.805,6.029,13.2995,4.60003,2470.53,2021-6-19T02:55:58Z
2021-06-19T00:57:47Z,42.805,6.029,13.2991,4.60003,2470.567,2021-6-19T02:59:01Z
2021-06-19T01:00:50Z,42.805,6.029,13.2994,4.60002,2470.53,2021-6-19T03:02:04Z
2021-06-19T01:03:53Z,42.805,6.029,13.2994,4.60003,2470.544,2021-6-19T03:05:07Z
2021-06-19T01:06:56Z,42.805,6.029,13.2995,4.60002,2470.553,2021-6-19T03:08:10Z
2021-06-19T01:09:59Z,42.805,6.029,13.2996,4.60002,2470.553,2021-6-19T03:11:13Z
2021-06-19T01:13:03Z,42.805,6.029,13.2993,4.60001,2470.53,2021-6-19T03:14:16Z
2021-06-19T01:16:06Z,42.805,6.029,13.2994,4.60002,2470.53,2021-6-19T03:17:20Z
2021-06-19T01:19:09Z,42.805,6.029,13.2998,4.60002,2470.553,2021-6-19T03:20:23Z
2021-06-19T01:22:12Z,42.805,6.029,13.2996,4.60003,2470.53,2021-6-19T03:23:26Z
2021-06-19T01:25:15Z,42.805,6.029,13.2996,4.60003,2470.553,2021-6-19T03:26:29Z
2021-06-19T01:28:18Z,42.805,6.029,13.2992,4.60003,2470.567,2021-6-19T03:29:32Z
2021-06-19T01:31:21Z,42.805,6.029,13.2993,4.60002,2470.53,2021-6-19T03:32:35Z
2021-06-19T01:34:24Z,42.805,6.029,13.2993,4.60003,2470.507,2021-6-19T03:35:38Z
2021-06-19T01:37:28Z,42.805,6.029,13.2998,4.60001,2470.553,2021-6-19T03:38:41Z
2021-06-19T01:40:31Z,42.805,6.029,13.2994,4.60003,2470.553,2021-6-19T03:41:45Z
2021-06-19T01:43:34Z,42.805,6.029,13.2995,4.60001,2470.567,2021-6-19T03:44:48Z
2021-06-19T01:46:37Z,42.805,6.029,13.2996,4.60002,2470.553,2021-6-19T03:47:51Z
2021-06-19T01:49:40Z,42.805,6.029,13.2993,4.60003,2470.553,2021-6-19T03:50:54Z
2021-06-19T01:52:43Z,42.805,6.029,13.2990,4.60003,2470.567,2021-6-19T03:53:57Z
2021-06-19T01:55:46Z,42.805,6.029,13.2993,4.60003,2470.553,2021-6-19T03:57:00Z
2021-06-19T01:58:49Z,42.805,6.029,13.2994,4.60001,2470.516,2021-6-19T04:00:03Z
2021-06-19T02:01:53Z,42.805,6.029,13.2996,4.60001,2470.507,2021-6-19T04:03:06Z
2021-06-19T02:04:56Z,42.805,6.029,13.2995,4.60002,2470.544,2021-6-19T04:06:10Z
2021-06-19T02:07:59Z,42.805,6.029,13.2998,4.60001,2470.52,2021-6-19T04:09:13Z
2021-06-19T02:11:02Z,42.805,6.029,13.2993,4.60001,2470.553,2021-6-19T04:12:16Z
2021-06-19T02:14:05Z,42.805,6.029,13.2990,4.60002,2470.507,2021-6-19T04:15:19Z
2021-06-19T02:17:08Z,42.805,6.029,13.2993,4.60001,2470.53,2021-6-19T04:18:22Z
2021-06-19T02:20:11Z,42.805,6.029,13.2998,4.60001,2470.553,2021-6-19T04:21:25Z
2021-06-19T02:23:14Z,42.805,6.029,13.2996,4.60003,2470.53,2021-6-19T04:24:28Z
2021-06-19T02:26:18Z,42.805,6.029,13.2995,4.60002,2470.53,2021-6-19T04:27:31Z
2021-06-19T02:29:21Z,42.805,6.029,13.2994,4.60003,2470.577,2021-6-19T04:30:34Z
2021-06-19T02:32:24Z,42.805,6.029,13.2993,4.60002,2470.507,2021-6-19T04:33:38Z
2021-06-19T02:35:27Z,42.805,6.029,13.2992,4.60001,2470.567,2021-6-19T04:36:41Z
2021-06-19T02:38:30Z,42.805,6.029,13.2996,4.60003,2470.507,2021-6-19T04:39:44Z
2021-06-19T02:41:33Z,42.805,6.029,13.2995,4.60002,2470.53,2021-6-19T04:42:47Z
2021-06-19T02:44:36Z,42.805,6.029,13.2994,4.60006,2470.53,2021-6-19T04:45:50Z
2021-06-19T02:47:39Z,42.805,6.029,13.2994,4.60002,2470.53,2021-6-19T04:48:53Z
2021-06-19T02:50:42Z,42.805,6.029,13.2994,4.60004,2470.53,2021-6-19T04:51:56Z
2021-06-19T02:53:46Z,42.805,6.029,13.2992,4.60001,2470.497,2021-6-19T04:54:59Z
2021-06-19T02:56:49Z,42.805,6.029,13.2993,4.60004,2470.567,2021-6-19T04:58:03Z
2021-06-19T02:59:52Z,42.805,6.029,13.2992,4.60002,2470.553,2021-6-19T05:01:06Z
2021-06-19T03:02:55Z,42.805,6.029,13.2993,4.60004,2470.507,2021-6-19T05:04:09Z
2021-06-19T03:05:58Z,42.805,6.029,13.2997,4.60002,2470.53,2021-6-19T05:07:12Z
2021-06-19T03:09:01Z,42.805,6.029,13.2996,4.60002,2470.553,2021-6-19T05:10:15Z
2021-06-19T03:12:04Z,42.805,6.029,13.2993,4.60000,2470.544,2021-6-19T05:13:18Z
2021-06-19T03:15:07Z,42.805,6.029,13.2992,4.60003,2470.53,2021-6-19T05:16:21Z
2021-06-19T03:18:11Z,42.805,6.029,13.2991,4.60001,2470.52,2021-6-19T05:19:24Z
2021-06-19T03:21:14Z,42.805,6.029,13.2995,4.60000,2470.483,2021-6-19T05:22:28Z
2021-06-19T03:24:17Z,42.805,6.029,13.2991,4.60001,2470.52,2021-6-19T05:25:31Z
2021-06-19T03:27:20Z,42.805,6.029,13.2993,4.60002,2470.53,2021-6-19T05:28:34Z
2021-06-19T03:30:23Z,42.805,6.029,13.2997,4.60003,2470.507,2021-6-19T05:31:37Z
2021-06-19T03:33:26Z,42.805,6.029,13.2991,4.60001,2470.553,2021-6-19T05:34:40Z
2021-06-19T03:36:29Z,42.805,6.029,13.2993,4.60000,2470.52,2021-6-19T05:37:43Z
2021-06-19T03:39:32Z,42.805,6.029,13.2997,4.60001,2470.544,2021-6-19T05:40:46Z
2021-06-19T03:42:36Z,42.805,6.029,13.2991,4.60000,2470.497,2021-6-19T05:43:49Z
2021-06-19T03:45:39Z,42.805,6.029,13.2995,4.60003,2470.507,2021-6-19T05:46:53Z
2021-06-19T03:48:42Z,42.805,6.029,13.2993,4.59999,2470.507,2021-6-19T05:49:56Z
2021-06-19T03:51:45Z,42.805,6.029,13.2991,4.60001,2470.507,2021-6-19T05:52:59Z
2021-06-19T03:54:48Z,42.805,6.029,13.2993,4.59999,2470.52,2021-6-19T05:56:02Z
2021-06-19T03:57:51Z,42.805,6.029,13.2994,4.59999,2470.567,2021-6-19T05:59:05Z
2021-06-19T04:00:54Z,42.805,6.029,13.2996,4.59999,2470.507,2021-6-19T06:02:08Z
2021-06-19T04:03:57Z,42.805,6.029,13.2992,4.59999,2470.507,2021-6-19T06:05:11Z
2021-06-19T04:07:01Z,42.805,6.029,13.2996,4.60001,2470.52,2021-6-19T06:08:14Z
2021-06-19T04:10:04Z,42.805,6.029,13.2993,4.59999,2470.483,2021-6-19T06:11:18Z
2021-06-19T04:13:07Z,42.805,6.029,13.2990,4.60002,2470.52,2021-6-19T06:14:21Z
2021-06-19T04:16:10Z,42.805,6.029,13.2995,4.60001,2470.507,2021-6-19T06:17:24Z
2021-06-19T04:19:13Z,42.805,6.029,13.2993,4.60000,2470.507,2021-6-19T06:20:27Z
2021-06-19T04:22:16Z,42.805,6.029,13.2996,4.59999,2470.52,2021-6-19T06:23:30Z
2021-06-19T04:25:19Z,42.805,6.029,13.2997,4.60000,2470.53,2021-6-19T06:26:33Z
2021-06-19T04:28:22Z,42.805,6.029,13.2995,4.60001,2470.483,2021-6-19T06:29:36Z
2021-06-19T04:31:26Z,42.805,6.029,13.2995,4.59999,2470.483,2021-6-19T06:32:39Z
2021-06-19T04:34:29Z,42.805,6.029,13.2993,4.60000,2470.497,2021-6-19T06:35:42Z
2021-06-19T04:37:32Z,42.805,6.029,13.2994,4.60000,2470.483,2021-6-19T06:38:46Z
2021-06-19T04:40:35Z,42.805,6.029,13.3000,4.60003,2470.507,2021-6-19T06:41:49Z
2021-06-19T04:43:38Z,42.805,6.029,13.2993,4.59999,2470.47,2021-6-19T06:44:52Z
2021-06-19T04:46:41Z,42.805,6.029,13.2996,4.60001,2470.52,2021-6-19T06:47:55Z
2021-06-19T04:49:44Z,42.805,6.029,13.2993,4.60000,2470.483,2021-6-19T06:50:58Z
2021-06-19T04:52:47Z,42.805,6.029,13.2997,4.59999,2470.483,2021-6-19T06:54:01Z
2021-06-19T04:55:51Z,42.805,6.029,13.2991,4.59999,2470.507,2021-6-19T06:57:04Z
2021-06-19T04:58:54Z,42.805,6.029,13.2997,4.59999,2470.497,2021-6-19T07:00:08Z
2021-06-19T05:01:57Z,42.805,6.029,13.2989,4.60002,2470.497,2021-6-19T07:03:11Z
2021-06-19T05:05:00Z,42.805,6.029,13.2997,4.60003,2470.483,2021-6-19T07:06:14Z
2021-06-19T05:08:03Z,42.805,6.029,13.2991,4.60000,2470.497,2021-6-19T07:09:17Z
2021-06-19T05:11:06Z,42.805,6.029,13.2994,4.59999,2470.483,2021-6-19T07:12:20Z
2021-06-19T05:14:09Z,42.805,6.029,13.2995,4.60000,2470.474,2021-6-19T07:15:23Z
2021-06-19T05:17:12Z,42.805,6.029,13.2993,4.60002,2470.46,2021-6-19T07:18:26Z
2021-06-19T05:20:15Z,42.805,6.029,13.2990,4.59999,2470.46,2021-6-19T07:21:29Z
2021-06-19T05:23:19Z,42.805,6.029,13.2991,4.59999,2470.437,2021-6-19T07:24:32Z
2021-06-19T05:26:22Z,42.805,6.029,13.2993,4.59999,2470.46,2021-6-19T07:27:36Z
2021-06-19T05:29:25Z,42.805,6.029,13.2992,4.60003,2470.46,2021-6-19T07:30:39Z
2021-06-19T05:32:28Z,42.805,6.029,13.2995,4.59999,2470.474,2021-6-19T07:33:42Z
2021-06-19T05:35:31Z,42.805,6.029,13.2996,4.60000,2470.437,2021-6-19T07:36:45Z
2021-06-19T05:38:34Z,42.805,6.029,13.2996,4.59999,2470.46,2021-6-19T07:39:48Z
2021-06-19T05:41:37Z,42.805,6.029,13.2993,4.60001,2470.46,2021-6-19T07:42:51Z
2021-06-19T05:44:40Z,42.805,6.029,13.2993,4.60001,2470.483,2021-6-19T07:45:54Z
2021-06-19T05:47:44Z,42.805,6.029,13.2993,4.59999,2470.437,2021-6-19T07:48:57Z
2021-06-19T05:50:47Z,42.805,6.029,13.2992,4.59999,2470.474,2021-6-19T07:52:01Z
2021-06-19T05:53:50Z,42.805,6.029,13.2992,4.59999,2470.46,2021-6-19T07:55:04Z
2021-06-19T05:56:53Z,42.805,6.029,13.2991,4.60000,2470.483,2021-6-19T07:58:07Z
2021-06-19T05:59:56Z,42.805,6.029,13.2994,4.59999,2470.446,2021-6-19T08:01:10Z
2021-06-19T06:02:59Z,42.805,6.029,13.2993,4.59999,2470.474,2021-6-19T08:04:13Z
2021-06-19T06:06:02Z,42.805,6.029,13.2992,4.59999,2470.437,2021-6-19T08:07:16Z
2021-06-19T06:09:05Z,42.805,6.029,13.2991,4.59999,2470.423,2021-6-19T08:10:19Z
2021-06-19T06:12:09Z,42.805,6.029,13.2993,4.60004,2470.413,2021-6-19T08:13:22Z
2021-06-19T06:15:12Z,42.805,6.029,13.2998,4.60005,2470.474,2021-6-19T08:16:26Z
2021-06-19T06:18:15Z,42.805,6.029,13.2999,4.60000,2470.46,2021-6-19T08:19:29Z
2021-06-19T06:21:18Z,42.805,6.029,13.2992,4.59999,2470.437,2021-6-19T08:22:32Z
2021-06-19T06:24:21Z,42.805,6.029,13.2993,4.59999,2470.45,2021-6-19T08:25:35Z
2021-06-19T06:27:24Z,42.805,6.029,13.2996,4.60000,2470.46,2021-6-19T08:28:38Z
2021-06-19T06:30:27Z,42.805,6.029,13.2995,4.60001,2470.45,2021-6-19T08:31:41Z
2021-06-19T06:33:30Z,42.805,6.029,13.2991,4.60001,2470.483,2021-6-19T08:34:44Z
2021-06-19T06:36:34Z,42.805,6.029,13.2993,4.59999,2470.423,2021-6-19T08:37:47Z
2021-06-19T06:39:37Z,42.805,6.029,13.2993,4.59999,2470.437,2021-6-19T08:40:51Z
2021-06-19T06:42:40Z,42.805,6.029,13.2991,4.60001,2470.45,2021-6-19T08:43:54Z
2021-06-19T06:45:43Z,42.805,6.029,13.2991,4.59999,2470.45,2021-6-19T08:46:57Z
2021-06-19T06:48:46Z,42.805,6.029,13.2998,4.60001,2470.427,2021-6-19T08:50:00Z
2021-06-19T06:51:49Z,42.805,6.029,13.2991,4.60005,2470.413,2021-6-19T08:53:03Z
2021-06-19T06:54:52Z,42.805,6.029,13.2993,4.59999,2470.427,2021-6-19T08:56:06Z
2021-06-19T06:57:55Z,42.805,6.029,13.2992,4.60001,2470.413,2021-6-19T08:59:09Z
2021-06-19T07:00:59Z,42.805,6.029,13.2993,4.59999,2470.413,2021-6-19T09:02:12Z
2021-06-19T07:04:02Z,42.805,6.029,13.2995,4.59999,2470.39,2021-6-19T09:05:16Z
2021-06-19T07:07:05Z,42.805,6.029,13.2986,4.59998,2470.427,2021-6-19T09:08:19Z
2021-06-19T07:10:08Z,42.805,6.029,13.2993,4.60001,2470.39,2021-6-19T09:11:22Z
2021-06-19T07:13:11Z,42.805,6.029,13.2996,4.60003,2470.427,2021-6-19T09:14:25Z
2021-06-19T07:16:14Z,42.805,6.029,13.2993,4.59998,2470.413,2021-6-19T09:17:28Z
2021-06-19T07:19:17Z,42.805,6.029,13.2993,4.59998,2470.413,2021-6-19T09:20:31Z
2021-06-19T07:22:20Z,42.805,6.029,13.2989,4.59998,2470.413,2021-6-19T09:23:34Z
2021-06-19T07:25:24Z,42.805,6.029,13.2987,4.60005,2470.413,2021-6-19T09:26:37Z
2021-06-19T07:28:27Z,42.805,6.029,13.2993,4.59999,2470.427,2021-6-19T09:29:41Z
2021-06-19T07:31:30Z,42.805,6.029,13.2990,4.59999,2470.404,2021-6-19T09:32:44Z
2021-06-19T07:34:33Z,42.805,6.029,13.2996,4.59999,2470.366,2021-6-19T09:35:47Z
2021-06-19T07:37:36Z,42.805,6.029,13.2991,4.60004,2470.413,2021-6-19T09:38:50Z
2021-06-19T07:40:39Z,42.805,6.029,13.2991,4.59998,2470.437,2021-6-19T09:41:53Z
2021-06-19T07:43:42Z,42.805,6.029,13.2991,4.59999,2470.413,2021-6-19T09:44:56Z
2021-06-19T07:46:45Z,42.805,6.029,13.2993,4.59999,2470.38,2021-6-19T09:47:59Z
2021-06-19T07:49:49Z,42.805,6.029,13.2991,4.59996,2470.39,2021-6-19T09:51:02Z
2021-06-19T07:52:52Z,42.805,6.029,13.2993,4.59997,2470.39,2021-6-19T09:54:05Z
2021-06-19T07:55:55Z,42.805,6.029,13.2990,4.59999,2470.39,2021-6-19T09:57:09Z
2021-06-19T07:58:58Z,42.805,6.029,13.2993,4.59998,2470.427,2021-6-19T10:00:12Z
2021-06-19T08:02:01Z,42.805,6.029,13.2996,4.59998,2470.366,2021-6-19T10:03:15Z
2021-06-19T08:05:04Z,42.805,6.029,13.2991,4.60000,2470.38,2021-6-19T10:06:18Z
2021-06-19T08:08:07Z,42.805,6.029,13.2987,4.59997,2470.366,2021-6-19T10:09:21Z
2021-06-19T08:11:10Z,42.805,6.029,13.2993,4.59999,2470.366,2021-6-19T10:12:24Z
2021-06-19T08:14:14Z,42.805,6.029,13.2992,4.60000,2470.38,2021-6-19T10:15:27Z
2021-06-19T08:17:17Z,42.805,6.029,13.2992,4.59999,2470.38,2021-6-19T10:18:30Z
2021-06-19T08:20:20Z,42.805,6.029,13.2988,4.59999,2470.366,2021-6-19T10:21:34Z
2021-06-19T08:23:23Z,42.805,6.029,13.2989,4.59999,2470.357,2021-6-19T10:24:37Z
2021-06-19T08:26:26Z,42.805,6.029,13.2992,4.59997,2470.39,2021-6-19T10:27:40Z
2021-06-19T08:29:29Z,42.805,6.029,13.2993,4.59996,2470.39,2021-6-19T10:30:43Z
2021-06-19T08:32:32Z,42.805,6.029,13.2991,4.59999,2470.366,2021-6-19T10:33:46Z
2021-06-19T08:35:35Z,42.805,6.029,13.2990,4.59997,2470.404,2021-6-19T10:36:49Z
2021-06-19T08:38:39Z,42.805,6.029,13.2989,4.59997,2470.343,2021-6-19T10:39:52Z
2021-06-19T08:41:42Z,42.805,6.029,13.2991,4.59996,2470.366,2021-6-19T10:42:56Z
2021-06-19T08:44:45Z,42.805,6.029,13.2992,4.59996,2470.366,2021-6-19T10:45:59Z
2021-06-19T08:47:48Z,42.805,6.029,13.2990,4.59996,2470.366,2021-6-19T10:49:02Z
2021-06-19T08:50:51Z,42.805,6.029,13.2994,4.59996,2470.366,2021-6-19T10:52:05Z
2021-06-19T08:53:54Z,42.805,6.029,13.2990,4.59999,2470.366,2021-6-19T10:55:08Z
2021-06-19T08:56:57Z,42.805,6.029,13.2993,4.59996,2470.366,2021-6-19T10:58:11Z
2021-06-19T09:00:00Z,42.805,6.029,13.2991,4.59996,2470.38,2021-6-19T11:01:14Z
2021-06-19T09:03:04Z,42.805,6.029,13.2991,4.59997,2470.366,2021-6-19T11:04:17Z
2021-06-19T09:06:07Z,42.805,6.029,13.2990,4.59996,2470.366,2021-6-19T11:07:21Z
2021-06-19T09:09:10Z,42.805,6.029,13.2986,4.59996,2470.38,2021-6-19T11:10:24Z
2021-06-19T09:12:13Z,42.805,6.029,13.2991,4.59994,2470.343,2021-6-19T11:13:27Z
2021-06-19T09:15:16Z,42.805,6.029,13.2987,4.59995,2470.366,2021-6-19T11:16:30Z
2021-06-19T09:18:19Z,42.805,6.029,13.2990,4.59996,2470.357,2021-6-19T11:19:33Z
2021-06-19T09:21:22Z,42.805,6.029,13.2991,4.60000,2470.343,2021-6-19T11:22:36Z
2021-06-19T09:24:25Z,42.805,6.029,13.2994,4.59996,2470.39,2021-6-19T11:25:39Z
2021-06-19T09:27:29Z,42.805,6.029,13.2988,4.59996,2470.343,2021-6-19T11:28:42Z
2021-06-19T09:30:32Z,42.805,6.029,13.2992,4.59997,2470.343,2021-6-19T11:31:46Z
2021-06-19T09:33:35Z,42.805,6.029,13.2993,4.59996,2470.404,2021-6-19T11:34:49Z
2021-06-19T09:36:38Z,42.805,6.029,13.2990,4.59996,2470.343,2021-6-19T11:37:52Z
2021-06-19T09:39:41Z,42.805,6.029,13.2992,4.59996,2470.38,2021-6-19T11:40:55Z
2021-06-19T09:42:44Z,42.805,6.029,13.2990,4.59997,2470.404,2021-6-19T11:43:58Z
2021-06-19T09:45:47Z,42.805,6.029,13.2991,4.59999,2470.334,2021-6-19T11:47:01Z
2021-06-19T09:48:50Z,42.805,6.029,13.2990,4.59996,2470.357,2021-6-19T11:50:04Z
2021-06-19T09:51:54Z,42.805,6.029,13.2987,4.59996,2470.334,2021-6-19T11:53:07Z
2021-06-19T09:54:57Z,42.805,6.029,13.2986,4.59996,2470.357,2021-6-19T11:56:11Z
2021-06-19T09:58:00Z,42.805,6.029,13.2992,4.59997,2470.366,2021-6-19T11:59:14Z
2021-06-19T10:01:03Z,42.805,6.029,13.2988,4.59999,2470.366,2021-6-19T12:02:17Z
2021-06-19T10:04:06Z,42.805,6.029,13.2990,4.59997,2470.38,2021-6-19T12:05:20Z
2021-06-19T10:07:09Z,42.805,6.029,13.2990,4.59996,2470.343,2021-6-19T12:08:23Z
2021-06-19T10:10:12Z,42.805,6.029,13.2990,4.59996,2470.404,2021-6-19T12:11:26Z
2021-06-19T10:13:15Z,42.805,6.029,13.2988,4.59998,2470.38,2021-6-19T12:14:29Z
2021-06-19T10:16:19Z,42.805,6.029,13.2986,4.59996,2470.343,2021-6-19T12:17:32Z
2021-06-19T10:19:22Z,42.805,6.029,13.2989,4.59996,2470.404,2021-6-19T12:20:36Z
2021-06-19T10:22:25Z,42.805,6.029,13.2988,4.59996,2470.38,2021-6-19T12:23:39Z
2021-06-19T10:25:28Z,42.805,6.029,13.2991,4.59998,2470.357,2021-6-19T12:26:42Z
2021-06-19T10:28:31Z,42.805,6.029,13.2988,4.59995,2470.39,2021-6-19T12:29:45Z
2021-06-19T10:31:34Z,42.805,6.029,13.2987,4.59995,2470.404,2021-6-19T12:32:48Z
2021-06-19T10:34:37Z,42.805,6.029,13.2989,4.59996,2470.413,2021-6-19T12:35:51Z
2021-06-19T10:37:41Z,42.805,6.029,13.2991,4.59997,2470.366,2021-6-19T12:38:54Z
2021-06-19T10:40:44Z,42.805,6.029,13.2987,4.59996,2470.39,2021-6-19T12:41:58Z
2021-06-19T10:43:47Z,42.805,6.029,13.2987,4.59996,2470.39,2021-6-19T12:45:01Z
2021-06-19T10:46:50Z,42.805,6.029,13.2987,4.59996,2470.404,2021-6-19T12:48:04Z
2021-06-19T10:49:53Z,42.805,6.029,13.2986,4.59998,2470.39,2021-6-19T12:51:07Z
2021-06-19T10:52:56Z,42.805,6.029,13.2985,4.59996,2470.413,2021-6-19T12:54:10Z
2021-06-19T10:55:59Z,42.805,6.029,13.2985,4.59996,2470.39,2021-6-19T12:57:13Z
2021-06-19T10:59:02Z,42.805,6.029,13.2990,4.59997,2470.413,2021-6-19T13:00:16Z
2021-06-19T11:02:06Z,42.805,6.029,13.2990,4.59999,2470.404,2021-6-19T13:03:19Z
2021-06-19T11:05:09Z,42.805,6.029,13.2989,4.59995,2470.413,2021-6-19T13:06:23Z
2021-06-19T11:08:12Z,42.805,6.029,13.2985,4.59996,2470.413,2021-6-19T13:09:26Z
2021-06-19T11:11:15Z,42.805,6.029,13.2988,4.59996,2470.366,2021-6-19T13:12:29Z
2021-06-19T11:14:18Z,42.805,6.029,13.2990,4.59995,2470.404,2021-6-19T13:15:32Z
2021-06-19T11:17:21Z,42.805,6.029,13.2991,4.59996,2470.404,2021-6-19T13:18:35Z
2021-06-19T11:20:24Z,42.805,6.029,13.2991,4.59996,2470.404,2021-6-19T13:21:38Z
2021-06-19T11:23:27Z,42.805,6.029,13.2990,4.59996,2470.39,2021-6-19T13:24:41Z
2021-06-19T11:26:31Z,42.805,6.029,13.2989,4.59996,2470.39,2021-6-19T13:27:44Z
2021-06-19T11:29:34Z,42.805,6.029,13.2993,4.59999,2470.427,2021-6-19T13:30:48Z
2021-06-19T11:32:37Z,42.805,6.029,13.2991,4.59999,2470.399,2021-6-19T13:33:51Z
2021-06-19T11:35:40Z,42.805,6.029,13.2991,4.59997,2470.413,2021-6-19T13:36:54Z
2021-06-19T11:38:43Z,42.805,6.029,13.2992,4.59995,2470.39,2021-6-19T13:39:57Z
2021-06-19T11:41:46Z,42.805,6.029,13.2986,4.59996,2470.413,2021-6-19T13:43:00Z
2021-06-19T11:44:49Z,42.805,6.029,13.2988,4.59996,2470.39,2021-6-19T13:46:03Z
2021-06-19T11:47:52Z,42.805,6.029,13.2987,4.59998,2470.46,2021-6-19T13:49:06Z
2021-06-19T11:50:56Z,42.805,6.029,13.2988,4.59997,2470.427,2021-6-19T13:52:09Z
2021-06-19T11:53:59Z,42.805,6.029,13.2990,4.59996,2470.437,2021-6-19T13:55:13Z
2021-06-19T11:57:02Z,42.805,6.029,13.2988,4.59996,2470.437,2021-6-19T13:58:16Z
2021-06-19T12:00:05Z,42.805,6.029,13.2991,4.59997,2470.39,2021-6-19T14:01:19Z
2021-06-19T12:03:08Z,42.805,6.029,13.2990,4.59996,2470.437,2021-6-19T14:04:22Z
2021-06-19T12:06:11Z,42.805,6.029,13.2989,4.59996,2470.427,2021-6-19T14:07:25Z
2021-06-19T12:09:14Z,42.805,6.029,13.2985,4.59995,2470.39,2021-6-19T14:10:28Z
2021-06-19T12:12:17Z,42.805,6.029,13.2987,4.59996,2470.45,2021-6-19T14:13:31Z
2021-06-19T12:15:21Z,42.805,6.029,13.2990,4.59996,2470.437,2021-6-19T14:16:34Z
2021-06-19T12:18:24Z,42.805,6.029,13.2986,4.59996,2470.413,2021-6-19T14:19:38Z
2021-06-19T12:21:27Z,42.805,6.029,13.2990,4.59996,2470.427,2021-6-19T14:22:41Z
2021-06-19T12:24:30Z,42.805,6.029,13.2985,4.59996,2470.46,2021-6-19T14:25:44Z
2021-06-19T12:27:33Z,42.805,6.029,13.2990,4.59998,2470.437,2021-6-19T14:28:47Z
2021-06-19T12:30:36Z,42.805,6.029,13.2987,4.59996,2470.413,2021-6-19T14:31:50Z
2021-06-19T12:33:39Z,42.805,6.029,13.2991,4.59996,2470.45,2021-6-19T14:34:53Z
2021-06-19T12:36:42Z,42.805,6.029,13.2992,4.59995,2470.474,2021-6-19T14:37:56Z
2021-06-19T12:39:46Z,42.805,6.029,13.2988,4.59996,2470.45,2021-6-19T14:40:59Z
2021-06-19T12:42:49Z,42.805,6.029,13.2990,4.59996,2470.413,2021-6-19T14:44:03Z
2021-06-19T12:45:52Z,42.805,6.029,13.2988,4.59996,2470.46,2021-6-19T14:47:06Z
2021-06-19T12:48:55Z,42.805,6.029,13.2990,4.59996,2470.437,2021-6-19T14:50:09Z
2021-06-19T12:51:58Z,42.805,6.029,13.2990,4.59996,2470.423,2021-6-19T14:53:12Z
2021-06-19T12:55:01Z,42.805,6.029,13.2989,4.59997,2470.437,2021-6-19T14:56:15Z
2021-06-19T12:58:04Z,42.805,6.029,13.2985,4.59996,2470.46,2021-6-19T14:59:18Z
2021-06-19T13:01:07Z,42.805,6.029,13.2986,4.59996,2470.45,2021-6-19T15:02:21Z
2021-06-19T13:04:11Z,42.805,6.029,13.2987,4.59994,2470.45,2021-6-19T15:05:24Z
2021-06-19T13:07:14Z,42.805,6.029,13.2989,4.59999,2470.437,2021-6-19T15:08:28Z
2021-06-19T13:10:17Z,42.805,6.029,13.2990,4.59996,2470.483,2021-6-19T15:11:31Z
2021-06-19T13:13:20Z,42.805,6.029,13.2990,4.59998,2470.474,2021-6-19T15:14:34Z
2021-06-19T13:16:23Z,42.805,6.029,13.2990,4.59999,2470.45,2021-6-19T15:17:37Z
2021-06-19T13:19:26Z,42.805,6.029,13.2985,4.59995,2470.483,2021-6-19T15:20:40Z
2021-06-19T13:22:29Z,42.805,6.029,13.2990,4.59996,2470.474,2021-6-19T15:23:43Z
2021-06-19T13:25:33Z,42.805,6.029,13.2989,4.59996,2470.427,2021-6-19T15:26:46Z
2021-06-19T13:28:36Z,42.805,6.029,13.2986,4.59996,2470.46,2021-6-19T15:29:50Z
2021-06-19T13:31:39Z,42.805,6.029,13.2989,4.59996,2470.507,2021-6-19T15:32:53Z
2021-06-19T13:34:42Z,42.805,6.029,13.2990,4.59996,2470.46,2021-6-19T15:35:56Z
2021-06-19T13:37:45Z,42.805,6.029,13.2989,4.59996,2470.483,2021-6-19T15:38:59Z
2021-06-19T13:40:48Z,42.805,6.029,13.2991,4.59996,2470.497,2021-6-19T15:42:02Z
2021-06-19T13:43:51Z,42.805,6.029,13.2990,4.59998,2470.46,2021-6-19T15:45:05Z
2021-06-19T13:46:54Z,42.805,6.029,13.2988,4.59997,2470.437,2021-6-19T15:48:08Z
2021-06-19T13:49:58Z,42.805,6.029,13.2988,4.59999,2470.46,2021-6-19T15:51:11Z
2021-06-19T13:53:01Z,42.805,6.029,13.2987,4.59996,2470.46,2021-6-19T15:54:15Z
2021-06-19T13:56:04Z,42.805,6.029,13.2990,4.59995,2470.46,2021-6-19T15:57:18Z
2021-06-19T13:59:07Z,42.805,6.029,13.2990,4.59996,2470.46,2021-6-19T16:00:21Z
2021-06-19T14:02:10Z,42.805,6.029,13.2986,4.59995,2470.52,2021-6-19T16:03:24Z
2021-06-19T14:05:13Z,42.805,6.029,13.2985,4.59995,2470.46,2021-6-19T16:06:27Z
2021-06-19T14:08:16Z,42.805,6.029,13.2988,4.59996,2470.483,2021-6-19T16:09:30Z
2021-06-19T14:11:19Z,42.805,6.029,13.2989,4.59996,2470.507,2021-6-19T16:12:33Z
2021-06-19T14:14:23Z,42.805,6.029,13.2986,4.59996,2470.437,2021-6-19T16:15:36Z
2021-06-19T14:17:26Z,42.805,6.029,13.2986,4.59995,2470.45,2021-6-19T16:18:40Z
2021-06-19T14:20:29Z,42.805,6.029,13.2986,4.59995,2470.507,2021-6-19T16:21:43Z
2021-06-19T14:23:32Z,42.805,6.029,13.2987,4.59996,2470.46,2021-6-19T16:24:46Z
2021-06-19T14:26:35Z,42.805,6.029,13.2986,4.59999,2470.474,2021-6-19T16:27:49Z
2021-06-19T14:29:38Z,42.805,6.029,13.2987,4.59996,2470.423,2021-6-19T16:30:52Z
2021-06-19T14:32:41Z,42.805,6.029,13.2988,4.59995,2470.52,2021-6-19T16:33:55Z
2021-06-19T14:35:44Z,42.805,6.029,13.2989,4.59995,2470.483,2021-6-19T16:36:58Z
2021-06-19T14:38:48Z,42.805,6.029,13.2991,4.59995,2470.52,2021-6-19T16:40:01Z
2021-06-19T14:41:51Z,42.805,6.029,13.2987,4.59995,2470.46,2021-6-19T16:43:05Z
2021-06-19T14:44:54Z,42.805,6.029,13.2987,4.59996,2470.45,2021-6-19T16:46:08Z
2021-06-19T14:47:57Z,42.805,6.029,13.2990,4.59996,2470.46,2021-6-19T16:49:11Z
2021-06-19T14:51:00Z,42.805,6.029,13.2990,4.59996,2470.52,2021-6-19T16:52:14Z
2021-06-19T14:54:03Z,42.805,6.029,13.2990,4.59995,2470.483,2021-6-19T16:55:17Z
2021-06-19T14:57:06Z,42.805,6.029,13.2990,4.59996,2470.483,2021-6-19T16:58:20Z
2021-06-19T15:00:09Z,42.805,6.029,13.2989,4.59995,2470.483,2021-6-19T17:01:23Z
2021-06-19T15:03:13Z,42.805,6.029,13.2988,4.59996,2470.483,2021-6-19T17:04:26Z
2021-06-19T15:06:16Z,42.805,6.029,13.2988,4.59997,2470.483,2021-6-19T17:07:30Z
2021-06-19T15:09:19Z,42.805,6.029,13.2990,4.59996,2470.483,2021-6-19T17:10:33Z
2021-06-19T15:12:22Z,42.805,6.029,13.2986,4.59997,2470.52,2021-6-19T17:13:36Z
2021-06-19T15:15:25Z,42.805,6.029,13.2989,4.59996,2470.483,2021-6-19T17:16:39Z